sat.trackr.live / text

‹ back to catalog

STARLINK-34067

NORAD 64115 · 2025-110V

PAYLOAD ACTIVE UNKNOWN

§ Identity

Operator
Country
US
Launch date
2025-05-23
Launch site
AFWTR
Launch vehicle
Mass (kg)
RCS (m²)

Purposes: comms

External: N2YO · Heavens-Above · Gunter

§ Orbital elements

Epoch: 2026-05-25T01:28:29.434656Z

Period
93.97 min
Inclination
53.1616°
Eccentricity
0.0001440
Mean motion
15.32481387 rev/d
Perigee alt
467.4 km
Apogee alt
469.4 km
Semi-major
6,846.5 km
B*
8.8457e-4
RAAN
31.4381°
Arg perigee
93.4499°
Mean anomaly
266.6667°
Rev number
5,758

§ Raw data

STARLINK-340671 64115U 25110V   26145.06145179  .00027866  00000+0  88457-3 0  99902 64115  53.1616  31.4381 0001440  93.4499 266.6667 15.32481387 57584

JSON: /api/v1/satellites/64115 · /tle

For live sub-satellite position, see the globe view (requires WebGL).

§ Visibility from observer

Set your observer location to see the next 7 days of passes ≥ 10°. The values pass through the URL so the page stays shareable.

No JS? Fill the form by hand. The geolocation button needs JavaScript.